Simón Bolívar International Airport

Airport
ICAO code: 
SKSM
IATA Code: 
SMR
Summary
ICAO Region: 
CARSAM
Territory: 
Location: 
Santa Marta, Magdalena department
Serving: 
Santa Marta
Elevation: 
22 ft
Coordinates: 
Aerial View: 
11° 7' 1.79" N, 74° 13' 57.554" W
Metar
Observation
SKSM 210400Z 04007KT 9999 FEW020 29/20 Q1009 RMK A2981
Station
Santa Marta / Simon Bolivar
Date/Time
2022-01-21 04:00:00
Wind direction
40°
Wind speed
07 kts
Lowest cloud amount
few clouds
Temperature
29°C
Dew point
20°C
Humidity
58%
QNH
1009 hPa
Weather condition
n/a

The Simón Bolívar International Airport is known locally as Santa Marta Airport. The airport is located 14km south of Santa Marta, the capital of the Magdalena Department, 18km north of the municipality of Ciénaga in Colombia.

Climatology

Tropical savanna climate (Köppen climate classification Aw)

Runways

Designator Length Width Surface Rops
1/19 1700 30 ASP Yes/Yes
Airport map: 
Aerial View: 

SKYbrary Partners:

Safety knowledge contributed by: